EW3497 Weather Reports


time (UTC)temp
C
wind
direction
speed
KPH
gust
KPH
rain 1hr
cm
rain 24hr
cm
rain mn
cm
humidity
%
barometer
mb
20260507212704 23 329 16.1 33.8 0.00 0.00 0.00 27 1013.3
20260507211804 23 330 16.1 35.4 0.00 0.00 0.00 27 1013.3
20260507210904 23 323 12.9 29.0 0.00 0.00 0.00 31 1013.4
20260507210006 23 320 12.9 29.0 0.00 0.00 0.00 31 1013.6
20260507205404 23 328 9.7 29.0 0.00 0.00 0.00 32 1013.7
20260507204505 22 349 11.3 29.0 0.00 0.00 0.00 32 1013.8
20260507203604 22 2 16.1 35.4 0.00 0.00 0.00 32 1013.9
20260507202704 22 348 17.7 40.2 0.00 0.00 0.00 32 1013.9
20260507201804 22 340 16.1 33.8 0.00 0.00 0.00 32 1014.1
20260507200904 22 340 19.3 33.8 0.00 0.00 0.00 32 1014.1
20260507200025 22 346 17.7 33.8 0.00 0.00 0.00 31 1014.2
20260507195426 21 337 17.7 30.6 0.00 0.00 0.00 33 1014.1
20260507194504 21 350 16.1 35.4 0.00 0.00 0.00 33 1014.3
20260507193604 21 338 16.1 32.2 0.00 0.00 0.00 35 1014.4
20260507192704 20 356 17.7 32.2 0.00 0.00 0.00 36 1014.5
20260507191804 20 17 14.5 33.8 0.00 0.00 0.00 35 1014.8
20260507190904 20 26 12.9 25.7 0.00 0.00 0.00 36 1014.9
20260507190005 21 18 11.3 25.7 0.00 0.00 0.00 36 1014.9
20260507185425 21 16 12.9 30.6 0.00 0.00 0.00 38 1014.9
20260507184504 21 5 12.9 29.0 0.00 0.00 0.00 38 1015.0
20260507183604 20 2 11.3 25.7 0.00 0.00 0.00 39 1015.0
20260507182725 20 1 12.9 30.6 0.00 0.00 0.00 42 1015.1
20260507181804 19 346 12.9 25.7 0.00 0.00 0.00 43 1015.2
20260507180904 19 7 12.9 30.6 0.00 0.00 0.00 43 1015.2
20260507180004 18 357 14.5 33.8 0.00 0.00 0.00 47 1015.3
20260507175426 18 356 16.1 33.8 0.00 0.00 0.00 46 1015.4
20260507174525 18 357 16.1 33.8 0.00 0.00 0.00 47 1015.4
20260507173625 17 344 17.7 35.4 0.00 0.00 0.00 48 1015.5
20260507172704 17 354 17.7 33.8 0.00 0.00 0.00 49 1015.7
20260507171804 17 356 16.1 25.7 0.00 0.00 0.00 51 1015.8
20260507170904 17 346 16.1 35.4 0.00 0.00 0.00 51 1015.9
20260507170004 17 349 14.5 30.6 0.00 0.00 0.00 53 1015.9
20260507165404 17 349 14.5 29.0 0.00 0.00 0.00 53 1016.0
20260507164504 17 351 9.7 22.5 0.00 0.00 0.00 55 1016.0
20260507163604 17 343 11.3 32.2 0.00 0.00 0.00 56 1016.0
20260507162704 16 341 11.3 22.5 0.00 0.00 0.00 57 1016.0
20260507161825 16 336 11.3 22.5 0.00 0.00 0.00 58 1016.0
20260507160904 16 312 9.7 24.1 0.00 0.00 0.00 59 1016.2
20260507160007 16 308 11.3 22.5 0.00 0.00 0.00 60 1016.3
20260507155404 15 319 9.7 22.5 0.00 0.00 0.00 61 1016.4
20260507154504 15 318 11.3 22.5 0.00 0.00 0.00 61 1016.5
20260507153608 15 307 9.7 24.1 0.00 0.00 0.00 60 1016.6
20260507152704 15 302 8.0 24.1 0.00 0.00 0.00 62 1016.7
20260507151804 15 300 9.7 22.5 0.00 0.00 0.00 62 1016.8
20260507150904 15 288 11.3 22.5 0.00 0.00 0.00 63 1016.7
20260507150025 15 306 8.0 19.3 0.00 0.00 0.00 65 1016.7
20260507145404 15 295 9.7 19.3 0.00 0.00 0.00 65 1016.7
20260507144504 14 301 11.3 24.1 0.00 0.00 0.00 67 1016.7
20260507143604 14 306 12.9 24.1 0.00 0.00 0.00 67 1016.6
20260507142704 13 326 11.3 25.7 0.00 0.00 0.00 69 1016.6
20260507141804 13 343 11.3 25.7 0.00 0.00 0.00 69 1016.6
20260507140904 13 345 11.3 24.1 0.00 0.00 0.00 70 1016.6
20260507140025 13 353 12.9 22.5 0.00 0.00 0.00 71 1016.6
20260507135404 13 351 11.3 19.3 0.00 0.00 0.00 71 1016.6
20260507134504 13 345 11.3 22.5 0.00 0.00 0.00 72 1016.6
20260507133604 13 341 9.7 22.5 0.00 0.00 0.00 73 1016.6
20260507132704 13 359 6.4 17.7 0.00 0.00 0.00 73 1016.6
20260507131804 12 11 4.8 14.5 0.00 0.00 0.00 73 1016.6
20260507130925 12 45 3.2 14.5 0.00 0.00 0.00 73 1016.5
20260507130004 12 68 3.2 14.5 0.00 0.00 0.00 74 1016.5
20260507125404 12 82 1.6 8.0 0.00 0.00 0.00 74 1016.4
20260507124504 12 63 1.6 8.0 0.00 0.00 0.00 73 1016.3
20260507123604 12 45 6.4 19.3 0.00 0.00 0.00 73 1016.4
20260507122705 12 49 3.2 8.0 0.00 0.00 0.00 74 1016.3
20260507121804 13 49 4.8 12.9 0.00 0.00 0.00 73 1016.3
20260507120904 13 34 3.2 14.5 0.00 0.00 0.00 73 1016.3
20260507120005 13 353 1.6 6.4 0.00 0.00 0.00 72 1016.2
20260507115404 13 326 3.2 16.1 0.00 0.00 0.00 72 1016.1
20260507114504 13 323 4.8 16.1 0.00 0.00 0.00 72 1016.1
20260507113604 13 337 8.0 16.1 0.00 0.00 0.00 72 1016.0
20260507112704 13 347 6.4 16.1 0.00 0.00 0.00 72 1015.8
20260507111825 13 352 8.0 17.7 0.00 0.00 0.00 72 1015.7
20260507110903 13 349 8.0 17.7 0.00 0.00 0.00 71 1015.7
20260507110004 14 339 6.4 17.7 0.00 0.00 0.00 71 1015.6
20260507105403 13 338 6.4 17.7 0.00 0.00 0.00 71 1015.5
20260507104525 13 355 6.4 16.1 0.00 0.00 0.00 72 1015.4
20260507103604 13 29 3.2 12.9 0.00 0.00 0.00 72 1015.5
20260507102725 14 27 1.6 8.0 0.00 0.00 0.00 72 1015.4
20260507101804 14 42 6.4 17.7 0.00 0.00 0.00 71 1015.4
20260507100903 14 60 6.4 14.5 0.00 0.00 0.00 71 1015.5
20260507100004 14 57 4.8 14.5 0.00 0.00 0.00 70 1015.4
20260507095404 14 52 4.8 12.9 0.00 0.00 0.00 70 1015.4
20260507094525 15 34 3.2 12.9 0.00 0.00 0.00 70 1015.3
20260507093604 15 41 6.4 19.3 0.00 0.00 0.00 69 1015.3
20260507092704 15 15 6.4 19.3 0.00 0.00 0.00 69 1015.3
20260507091804 15 360 4.8 19.3 0.00 0.00 0.00 69 1015.3
20260507090904 15 55 1.6 8.0 0.00 0.00 0.00 69 1015.3
20260507090005 15 14 3.2 16.1 0.00 0.00 0.00 68 1015.4
20260507085404 15 353 6.4 19.3 0.00 0.00 0.00 68 1015.3
20260507084504 15 52 1.6 9.7 0.00 0.00 0.00 68 1015.2
20260507083605 16 279 3.2 9.7 0.00 0.00 0.00 68 1015.1
20260507082704 16 139 3.2 14.5 0.00 0.00 0.00 67 1015.1
20260507081804 16 72 1.6 6.4 0.00 0.00 0.00 67 1015.2
20260507080903 16 196 0.0 9.7 0.00 0.00 0.00 67 1015.2
20260507080004 16 184 3.2 12.9 0.00 0.00 0.00 67 1015.2
20260507075403 16 124 1.6 6.4 0.00 0.00 0.00 67 1015.3
20260507074504 16 114 1.6 8.0 0.00 0.00 0.00 67 1015.2
20260507073604 16 325 8.0 22.5 0.00 0.00 0.00 67 1015.1
20260507072704 16 333 9.7 24.1 0.00 0.00 0.00 68 1015.1
20260507071805 16 314 8.0 24.1 0.00 0.00 0.00 68 1015.0
20260507070904 16 317 11.3 30.6 0.00 0.00 0.00 68 1015.0
20260507070009 16 323 8.0 24.1 0.00 0.00 0.00 69 1015.1
20260507065404 16 329 9.7 22.5 0.00 0.00 0.00 69 1015.1
20260507064525 16 329 6.4 17.7 0.00 0.00 0.00 68 1015.1
20260507063604 16 309 9.7 22.5 0.00 0.00 0.00 68 1015.1
20260507062704 17 311 9.7 22.5 0.00 0.00 0.00 67 1015.1
20260507061804 17 317 8.0 19.3 0.00 0.00 0.00 67 1015.2
20260507060904 17 320 8.0 22.5 0.00 0.00 0.00 67 1015.3
20260507060004 17 301 9.7 29.0 0.00 0.00 0.00 67 1015.4
20260507055404 17 303 9.7 29.0 0.00 0.00 0.00 67 1015.4
20260507054504 17 311 11.3 25.7 0.00 0.00 0.00 66 1015.6
20260507053603 17 328 11.3 25.7 0.00 0.00 0.00 66 1015.6
20260507052704 17 317 8.0 24.1 0.00 0.00 0.00 65 1015.6
20260507051825 17 325 9.7 24.1 0.00 0.00 0.00 64 1015.7
20260507050904 18 337 9.7 29.0 0.00 0.00 0.00 63 1015.8
20260507050026 18 328 8.0 19.3 0.00 0.00 0.00 61 1015.7
20260507045404 18 319 6.4 17.7 0.00 0.00 0.00 59 1015.7
20260507044525 18 339 6.4 17.7 0.00 0.00 0.00 59 1015.7
20260507043626 18 343 4.8 16.1 0.00 0.00 0.00 56 1015.7
20260507042704 19 332 8.0 22.5 0.00 0.00 0.00 54 1015.7
20260507041825 19 331 9.7 25.7 0.00 0.00 0.00 51 1015.5
20260507040904 20 311 9.7 29.0 0.00 0.00 0.00 51 1015.4
20260507040004 20 320 11.3 33.8 0.00 0.00 0.00 49 1015.3
20260507035404 20 339 8.0 33.8 0.00 0.00 0.00 49 1015.2
20260507034504 20 294 4.8 16.1 0.00 0.00 0.00 50 1015.1
20260507033603 20 327 6.4 17.7 0.00 0.00 0.00 49 1015.1
20260507032725 20 299 8.0 22.5 0.00 0.00 0.00 48 1014.9
20260507031804 20 247 6.4 24.1 0.00 0.00 0.00 48 1014.7
20260507030904 21 254 4.8 19.3 0.00 0.00 0.00 47 1014.7
20260507030004 21 309 6.4 22.5 0.00 0.00 0.00 47 1014.7
20260507025404 21 286 6.4 19.3 0.00 0.00 0.00 47 1014.8
20260507024504 21 293 6.4 19.3 0.00 0.00 0.00 47 1014.7
20260507023624 21 298 9.7 24.1 0.00 0.00 0.00 46 1014.6
20260507022725 21 296 9.7 30.6 0.00 0.00 0.00 46 1014.5
20260507021804 21 276 12.9 35.4 0.00 0.00 0.00 47 1014.5
20260507020904 21 282 16.1 35.4 0.00 0.00 0.00 46 1014.5
20260507020004 21 289 14.5 38.6 0.00 0.00 0.00 46 1014.3
20260507015404 21 287 19.3 46.7 0.00 0.00 0.00 46 1014.2
20260507014504 21 286 17.7 41.8 0.00 0.00 0.00 46 1014.2
20260507013625 21 293 16.1 32.2 0.00 0.00 0.00 45 1014.1
20260507012704 22 294 14.5 32.2 0.00 0.00 0.00 45 1014.2
20260507011804 22 305 14.5 32.2 0.00 0.00 0.00 44 1014.2
20260507010004 22 321 12.9 33.8 0.00 0.00 0.00 44 1014.2
20260507005404 22 314 14.5 33.8 0.00 0.00 0.00 43 1014.3
20260507004504 22 314 11.3 30.6 0.00 0.00 0.00 43 1014.3
20260507003603 22 312 9.7 25.7 0.00 0.00 0.00 43 1014.2
20260507002704 22 313 16.1 38.6 0.00 0.00 0.00 42 1014.2
20260507001804 22 311 12.9 38.6 0.00 0.00 0.00 42 1014.0
20260507000904 22 302 12.9 33.8 0.00 0.00 0.00 41 1014.0
20260507000025 22 315 14.5 33.8 0.00 0.00 0.00 41 1013.9
20260506235403 22 323 16.1 33.8 0.00 0.00 0.00 40 1013.9
20260506234525 22 316 16.1 46.7 0.00 0.00 0.00 40 1013.8
20260506233604 23 321 16.1 46.7 0.00 0.00 0.00 40 1013.7
20260506232706 23 326 20.9 41.8 0.00 0.00 0.00 41 1013.6
20260506231825 23 323 19.3 40.2 0.00 0.00 0.00 41 1013.8
20260506230904 24 334 22.5 49.9 0.00 0.00 0.00 40 1013.7
20260506230004 24 326 20.9 46.7 0.00 0.00 0.00 40 1013.7
20260506225404 24 334 20.9 46.7 0.00 0.00 0.00 41 1013.7
20260506224504 23 323 22.5 45.1 0.00 0.00 0.00 42 1013.7
20260506223604 23 312 22.5 38.6 0.00 0.00 0.00 40 1013.8
20260506222704 23 307 19.3 56.3 0.00 0.00 0.00 41 1013.9
20260506221804 23 320 24.1 51.5 0.00 0.00 0.00 43 1014.0
20260506220926 23 312 20.9 51.5 0.00 0.00 0.00 42 1014.2
20260506220004 23 331 22.5 48.3 0.00 0.00 0.00 42 1014.2
20260506215403 23 338 20.9 48.3 0.00 0.00 0.00 42 1014.3
20260506214504 23 329 14.5 33.8 0.00 0.00 0.00 43 1014.3
20260506213604 24 349 17.7 40.2 0.00 0.00 0.00 42 1014.4